Regional Weather Roundup
Issued by NWS

Home | Current Version | Previous Version | Graphics & Text | Print | Product List | Glossary On
Versions: 1 2 3 4 5 6 7 8 9 10 11 12 13 14 15 16 17 18 19 20 21 22 23 24 25 26 27 28 29 30 31 32 33 34 35 36 37 38 39 40 41 42 43 44 45 46 47 48 49 50
000
ASUS43 KMPX 240610
RWRMN
WEATHER ROUNDUP FOR MINNESOTA
NATIONAL WEATHER SERVICE TWIN CITIES/CHANHASSEN MN
100 AM CDT SUN JUL 24 2016


NOTE: "FAIR" INDICATES FEW OR NO CLOUDS BELOW 12,000 FEET WITH NO
SIGNIFICANT WEATHER AND/OR OBSTRUCTIONS TO VISIBILITY. N/A MEANS
CURRENT SKY AND/OR WEATHER CONDITIONS ARE NOT AVAILABLE.

MNZ060>063-068>070-240700-
   Twin Cities Metro

CITY           SKY/WX    TMP DP  RH WIND       PRES   REMARKS
TWIN CITIES    CLOUDY    74  70  87 SE6       29.78R
6HR MIN TEMP:  74; 6HR MAX TEMP:  76;

ST PAUL        CLOUDY    74  71  91 S6        29.78R
CRYSTAL        PTCLDY    74  69  85 SE8       29.75F
BLAINE         MOCLDY    75  73  94 SE7       29.77S
LAKEVILLE      CLOUDY    73  73 100 S3        29.79R
EDEN PRAIRIE   CLEAR     75  71  87 S7        29.77R
6HR MIN TEMP:  75; 6HR MAX TEMP:  78;

LAKEVILLE      CLOUDY    73  73 100 S3        29.79R
SOUTH ST PAUL  CLOUDY    74  72  94 SE5       29.78S
LAKE ELMO      CLOUDY    72  72 100 S6        29.80S
$$
MNZ001>005-007-008-013>017-022>024-027-028-240700-
   Northwest Minnesota

CITY           SKY/WX    TMP DP  RH WIND       PRES   REMARKS
BEMIDJI        CLOUDY    72  70  94 SW8       29.75S
HALLOCK        CLEAR     68  66  94 W6        29.70R
ROSEAU         CLEAR     70  63  78 SW9       29.69S
WARROAD        CLEAR     70  64  83 SW6       29.69S
THIEF RVR FALL CLEAR     69  67  93 SW10      29.75S
CROOKSTON      CLEAR     66  66 100 SW7       29.76R
FOSSTON        PTCLDY    68  66  94 SW7       29.77F
DETROIT LAKES  CLEAR     68  66  94 W3        29.81S
MOORHEAD       CLEAR     72  70  94 SW5       29.80R
PARK RAPIDS    CLOUDY    68  65  90 NW8       29.77R
MAHNOMEN       FAIR      67  66  97 S7        29.78S
$$
MNZ006-009>011-018-025>026-240700-
   North Central Minnesota

CITY           SKY/WX    TMP DP  RH WIND       PRES   REMARKS
BAUDETTE       CLOUDY    70  69  97 SW5       29.70S
FLAG ISLAND    CLOUDY    70  66  88 SW3       29.67S
INTL FALLS     CLOUDY    70  64  81 VRB7      29.71S
6HR MIN TEMP:  70; 6HR MAX TEMP:  74;

WASKISH        CLOUDY    72  68  88 S5        29.71F
BIG FORK       CLOUDY    70  64  83 S3        29.76S
LONGVILLE      CLOUDY    70  68  94 CALM      29.74R
GRAND RAPIDS   LGT RAIN  67  66  97 SE13G29   29.72F FOG
CRANE LAKE     CLOUDY    66  63  88 S1        29.76F
ORR            CLOUDY    66  63  88 CALM      29.73F
COOK           CLOUDY    66  63  88 SE5       29.75F
WALKER         MOCLDY    69  67  94 W5        29.76S
$$
MNZ012-019>021-037-240700-
   Northeast Minnesota

CITY           SKY/WX    TMP DP  RH WIND       PRES   REMARKS
DULUTH         CLOUDY    63  60  90 SE9       29.80S
6HR MIN TEMP:  61; 6HR MAX TEMP:  67;

ELY            CLOUDY    63  57  82 SE5       29.78F
HIBBING        CLOUDY    64  63  96 SE9       29.75F FOG
EVELETH        CLOUDY    65  61  87 SE5       29.81R
DULUTH HARBOR  CLOUDY    63  61  94 NE7       29.81S
TWO HARBORS    CLOUDY    66  63  88 CALM      29.78F
SILVER BAY     CLOUDY    63  61  94 NE3       29.78F
GRAND MARAIS     N/A     63  58  83 E7        29.79F
G MARAIS ARPRT CLEAR     61  55  82 NE5       29.84F
$$
MNZ029>031-032-039>041-046>048-054>057-064-240700-
   West Central Minnesota

CITY           SKY/WX    TMP DP  RH WIND       PRES   REMARKS
FERGUS FALLS   PTCLDY    70  70 100 W5        29.81S
WHEATON        PTCLDY    72  70  94 CALM      29.83R
MORRIS         MOCLDY    70  70 100 NW3       29.81R
ALEXANDRIA     CLOUDY    70  66  87 W8        29.81F
ELBOW LAKE     FAIR      71  70  96 NW7       29.81R
WADENA         CLOUDY    68  66  94 W6        29.78R
GLENWOOD       CLOUDY    70  66  88 NW12      29.81R
APPLETON       PTCLDY    73  70  88 NW7       29.80R
BENSON         CLOUDY    72  66  83 N10       29.79R
ORTONVILLE     PTCLDY    75  70  83 NW7       29.82R
MADISON        PTCLDY    77  72  83 NW13      29.82R
WILLMAR        TSTM      73  72  94 NE14G22   29.77R
$$
MNZ033>034-036-042>043-049>051-058-059-240700-
   Central Minnesota

CITY           SKY/WX    TMP DP  RH WIND       PRES   REMARKS
ST CLOUD       CLOUDY    72  72 100 S9        29.74F
6HR MIN TEMP:  72; 6HR MAX TEMP:  76;

SAUK CENTRE    MOCLDY    73  71  93 W7        29.78R
PAYNESVILLE    TSTM      74  74 100 S12G21    29.77S
AITKIN         TSTM      70  63  78 N7G28     29.78R VSB 3/4
PINE RIVER     CLOUDY    64  64 100 CALM      29.80F
BRAINERD       TSTM      67  65  93 S6        29.75F
STAPLES        CLOUDY    70  68  94 CALM      29.75F
LONG PRAIRIE   CLOUDY    72  72 100 W7        29.77S
LITTLE FALLS   RAIN      72  68  88 W16G24    29.77R
LITCHFIELD     CLOUDY    75  75 100 SE5       29.78R
BUFFALO        PTCLDY    73  71  91 CALM      29.78S
MAPLE LAKE     CLOUDY    74  73  95 CALM      29.77F
HUTCHINSON     CLEAR     75  74  98 SE6       29.78S
$$
MNZ037-044-045-052-053-240700-
   East Central Minnesota

CITY           SKY/WX    TMP DP  RH WIND       PRES   REMARKS
PRINCETON      CLOUDY    73  72  94 SE7       29.74F
MORA           CLOUDY    70  68  94 E3        29.79S
CAMBRIDGE      CLOUDY    73  66  78 SE5       29.75F
RUSH CITY      CLOUDY    71  68  92 SE6       29.77F
MOOSE LAKE     CLOUDY    64  63  94 CALM      29.76F FOG
HINCKLEY       CLOUDY    72  70  94 SE5       29.78F
CLOQUET        CLOUDY    63  61  94 CALM      29.80S FOG
MCGREGOR       CLOUDY    68  64  88 E6        29.78R THUNDER
$$
MNZ071>073-080-081-089-090-097-098-240700-
   Southwest Minnesota

CITY           SKY/WX    TMP DP  RH WIND       PRES   REMARKS
MONTEVIDEO     PTCLDY    77  75  94 N9        29.80R
GRANITE FALLS  CLOUDY    81  77  89 NW14G24   29.79R
CANBY          PTCLDY    78  70  76 W13       29.84R
MARSHALL       CLOUDY    80  74  81 NW21G28   29.81
REDWOOD FALLS  MOCLDY    79  76  90 S8        29.76R
OLIVIA         CLOUDY    77  73  88 SW6       29.77R
PIPESTONE      PTCLDY    79  72  78 NW15      29.86R
WINDOM         CLEAR     79  75  89 SW5       29.80R
WORTHINGTON    CLEAR     80  76  87 SW9       29.82R
JACKSON        CLEAR     77  73  88 CALM      29.81R
TRACY          MOCLDY    81  77  89 NW13G20   29.82R
SLAYTON        MOCLDY    78  75  90 W10       29.84R
$$
MNZ065>067-074>077-082>085-091>093-240700-
   South Central Minnesota

CITY           SKY/WX    TMP DP  RH WIND       PRES   REMARKS
MANKATO        PTCLDY    75  70  83 S8        29.78S
NEW ULM        CLEAR     75  73  94 SE5       29.77S
ST JAMES       CLEAR     72  72 100 CALM      29.78S FOG
FAIRMONT       PTCLDY    75  72  88 S6        29.78S
GLENCOE        CLEAR     75  74  99 SE3       29.77R
FARIBAULT      CLOUDY    75  73  94 SE7       29.80S
OWATONNA       CLOUDY    75  72  88 S10       29.80F
WASECA         CLOUDY    73  72  94 SE7       29.81S FOG
ALBERT LEA     CLOUDY    75  73  94 S6        29.81F FOG
$$
MNZ078>079-086>088-094>096-240700-
   Southeast Minnesota

CITY           SKY/WX    TMP DP  RH WIND       PRES   REMARKS
ROCHESTER      CLOUDY    73  71  93 S10       29.83F
6HR MIN TEMP:  71; 6HR MAX TEMP:  75;

RED WING       CLOUDY    75  70  83 SE7       29.79F
STANTON        CLOUDY    75  70  83 S8        29.78F
DODGE CENTER   CLOUDY    73  72  94 S9        29.82F FOG
WINONA         CLOUDY    73  70  88 CALM      29.83S
AUSTIN         CLOUDY    73  72  94 S5        29.83S
PRESTON        MOCLDY    70  68  94 S9        29.85F
$$
ABBREVIATIONS USED IN REMARKS
   TC - TEMPERATURES IN CELSIUS
  WCI - WIND CHILL INDEX
   HX - HEAT INDEX
  VSB - VISIBILITY
$$



USA.gov is the U.S. government's official web portal to all federal, state and local government web resources and services.